FENGYUN 1C DEB, 36234

Orbit data source: Space-Track

FENGYUN 1C DEB, 36234 is space debris in SSO originally from a launch on Mon, 10 May 1999 UTC launched from the Taiyaun Space Center, China (TSC). Fengyun 1C debris stems from the Chinese weather satellite Fengyun-1C, which was intentionally destroyed by a Chinese anti-satellite missile in 2007. This event dramatically increased the amount of space debris, with thousands of trackable fragments posing hazards to satellites and human spaceflight. The Fengyun 1C debris cloud has become a focal point in discussions about space sustainability and the need for international regulations to prevent the creation of new debris.

Loading next visibility...
Identifier
36234, 1999-025DVK
Orbit
SSO
Country
Flag of CNCN / PRC
Related business
Manufacturer
Unknown
Mission
Spacecraft
Bus & Motor
Unknown
Mass
Unknown
Launch date (UTC)
1999-05-10 (27 years ago)
Launch vehicle
Unknown
Launch site
Taiyaun Space Center, China (TSC)
Object type
Payload
Rocket body
Debris
Shape & HBR
Unknown shape, 0.1 m
Radar Cross Section
Small (<0.1 m²)

Expand to show TLE details & history
Last TLE update: 2 weeks ago

TLE from 2 weeks ago
0 FENGYUN 1C DEB
1 36234U 99025DVK 26222.86024466  .00000133  00000-0  20897-3 0  9999
2 36234  98.9711 272.9272 0318362 139.1394 223.4084 13.45796801911906
Epoch: 2026-08-10T20:38Z
TLE epoch observation values (Epoch: 2026-08-10T20:38:45.138Z)
Latitude
0.00004°
Longitude
3.90229°
Altitude
1,266.731 km
Speed
7.137 km/s
True Right ascension
18h 11m 42s
True Declination
0° 00' 00"
Sunlit
Object was in full shadow at epoch
Visualization orbit readout
Latitude
Unknown
Longitude
Unknown
Altitude
Unknown
Speed
Unknown
Apparent Right ascension
Unknown
Apparent Declination
Unknown
Sunlit
N/A
Visualization observer readout
Local Sidereal Time
06:22:09
Azimuth
Unknown
Elevation
Unknown
Doppler factor
Unknown
Orbital elements
Apogee altitude
1,322.629 km
Perigee altitude
847.431 km
Semi-major axis
7,463.167 km
Eccentricity
0.03184
Inclination
98.9711°
RAAN
272.9272°
Arg. of periapsis
139.1394°
True anomaly
220.97265°
Mean anomaly
223.4084°
Eccentric anomaly
222.18352°
Mean motion
3.36634 °/min
Orbital period
106.94 mins
BSTAR
0.00020897
Loading maneuver chart data...
Computing Atmospheric mass density...

Documentation

Showing up to 5 results
|